Date String (YYYY-MM-DD hh:mm:ss) UTC,Instrument flags,Ambient pressure (hPa),Sample flow (lpm),Bypass flow (lpm),Sample temperature (°C),Ambient temperature (°C),ASC tube jacket temperature (°C),LED temperature (°C),Box temperature (°C),Sample RH (%),Span deviation,Mass concentration (μg/m³),Mass concentration (μg/m³),Mass concentration (μg/m³)
DateTimeUTC,F1_M11,P_M11,Q1_M11,Q2_M11,T1_M11,T2_M11,T3_M11,T4_M11,T5_M11,U1_M11,ZSPAN_M11,X0_M11,X2_M11,X1_M11
2022-02-22 06:00:00,,0820.7,5.01,0.00,22.4,22.6,00.0,31.3,24.2,04.9,0000.0,0009.02,0004.08,0003.38
2022-02-22 06:01:00,,0820.6,5.00,0.00,22.3,22.3,00.0,31.3,24.0,05.0,0000.0,0009.13,0004.07,0003.37
2022-02-22 06:02:00,,0820.5,4.99,0.00,22.2,21.9,00.0,31.3,23.8,05.0,0000.0,0009.61,0004.05,0003.38
2022-02-22 06:03:00,,0820.6,5.00,0.00,22.1,21.6,00.0,31.2,23.7,05.0,0000.0,0010.08,0004.06,0003.39
2022-02-22 06:04:00,,0820.7,5.01,0.00,22.1,21.5,00.0,31.2,23.6,05.0,0000.0,0009.66,0004.08,0003.40
2022-02-22 06:05:00,,0820.8,4.99,0.00,22.1,22.1,00.0,31.2,23.8,04.9,0000.0,0009.62,0004.07,0003.41
2022-02-22 06:06:00,,0820.8,5.02,0.00,22.3,22.8,00.0,31.3,24.1,04.9,0000.0,0009.80,0004.08,0003.41
2022-02-22 06:07:00,,0820.6,5.00,0.00,22.4,23.2,00.0,31.3,24.3,04.8,0000.0,0010.14,0004.12,0003.42
2022-02-22 06:08:00,,0820.6,5.00,0.00,22.5,22.9,00.0,31.3,24.3,04.8,0000.0,0010.17,0004.13,0003.43
2022-02-22 06:09:00,,0820.6,5.00,0.00,22.4,22.5,00.0,31.3,24.2,04.8,0000.0,0009.98,0004.12,0003.45
2022-02-22 06:10:00,,0820.8,5.00,0.00,22.4,22.2,00.0,31.3,24.0,04.8,0000.0,0010.12,0004.18,0003.47
2022-02-22 06:11:00,,0820.8,5.00,0.00,22.3,21.8,00.0,31.3,23.9,04.8,0000.0,0010.26,0004.21,0003.48
2022-02-22 06:12:00,,0820.7,5.00,0.00,22.2,21.6,00.0,31.3,23.7,04.8,0000.0,0010.80,0004.22,0003.49
2022-02-22 06:13:00,,0820.8,4.99,0.00,22.2,21.8,00.0,31.3,23.7,04.8,0000.0,0010.51,0004.29,0003.51
2022-02-22 06:14:00,,0820.8,5.01,0.00,22.3,22.5,00.0,31.3,24.0,04.8,0000.0,0009.72,0004.31,0003.53
2022-02-22 06:15:00,,0820.7,5.00,0.00,22.4,23.2,00.0,31.4,24.3,04.7,0000.0,0009.76,0004.30,0003.52
2022-02-22 06:16:00,,0820.7,5.00,0.00,22.6,23.4,00.0,31.4,24.4,04.7,0000.0,0009.75,0004.30,0003.53
2022-02-22 06:17:00,,0820.7,4.99,0.00,22.6,23.0,00.0,31.4,24.4,04.6,0000.0,0009.50,0004.33,0003.54
2022-02-22 06:18:00,,0820.7,5.01,0.00,22.5,22.6,00.0,31.4,24.2,04.7,0000.0,0009.19,0004.35,0003.55
2022-02-22 06:19:00,,0820.8,5.00,0.00,22.4,22.2,00.0,31.4,24.0,04.7,0000.0,0009.06,0004.31,0003.55
2022-02-22 06:20:00,,0820.8,5.00,0.00,22.3,21.9,00.0,31.4,23.9,04.7,0000.0,0009.24,0004.30,0003.56
2022-02-22 06:21:00,,0820.7,4.99,0.00,22.2,21.5,00.0,31.3,23.8,04.7,0000.0,0008.97,0004.23,0003.56
2022-02-22 06:22:00,,0820.6,5.00,0.00,22.2,21.7,00.0,31.3,23.8,04.7,0000.0,0008.84,0004.22,0003.56
2022-02-22 06:23:00,,0820.6,5.01,0.00,22.3,22.4,00.0,31.4,24.0,04.7,0000.0,0008.31,0004.22,0003.56
2022-02-22 06:24:00,,0820.7,5.00,0.00,22.5,23.0,00.0,31.4,24.3,04.7,0000.0,0008.49,0004.22,0003.56
2022-02-22 06:25:00,,0820.6,5.00,0.00,22.5,22.7,00.0,31.4,24.3,04.7,0000.0,0008.87,0004.24,0003.57
2022-02-22 06:26:00,,0820.6,4.99,0.00,22.5,22.2,00.0,31.4,24.2,04.8,0000.0,0008.97,0004.25,0003.58
2022-02-22 06:27:00,,0820.6,4.99,0.00,22.4,21.6,00.0,31.4,24.0,04.8,0000.0,0008.95,0004.24,0003.59
2022-02-22 06:28:00,,0820.6,5.00,0.00,22.3,21.4,00.0,31.3,23.8,04.8,0000.0,0008.74,0004.22,0003.59
2022-02-22 06:29:00,,0820.5,5.01,0.00,22.2,21.3,00.0,31.3,23.6,04.8,0000.0,0008.53,0004.22,0003.59
2022-02-22 06:30:00,,0820.5,5.00,0.00,22.1,21.6,00.0,31.3,23.6,04.8,0000.0,0008.52,0004.22,0003.59
2022-02-22 06:31:00,,0820.6,4.99,0.00,22.2,22.3,00.0,31.3,23.9,04.7,0000.0,0008.40,0004.22,0003.58
2022-02-22 06:32:00,,0820.5,5.00,0.00,22.4,23.0,00.0,31.4,24.2,04.6,0000.0,0008.35,0004.24,0003.58
2022-02-22 06:33:00,,0820.5,5.00,0.00,22.5,23.2,00.0,31.4,24.3,04.6,0000.0,0008.33,0004.23,0003.57
2022-02-22 06:34:00,,0820.5,5.01,0.00,22.5,22.6,00.0,31.4,24.2,04.6,-000.5,0008.37,0004.25,0003.56
2022-02-22 06:35:00,,0820.4,5.00,0.00,22.4,22.0,00.0,31.4,24.1,04.6,0000.0,0008.10,0004.21,0003.54
2022-02-22 06:36:00,,0820.5,5.00,0.00,22.3,21.5,00.0,31.3,23.9,04.6,0000.0,0007.94,0004.21,0003.53
2022-02-22 06:37:00,,0820.4,4.99,0.00,22.2,21.2,00.0,31.3,23.8,04.6,0000.0,0007.44,0004.17,0003.52
2022-02-22 06:38:00,,0820.4,5.00,0.00,22.1,20.9,00.0,31.3,23.6,04.6,0000.0,0007.70,0004.16,0003.50
2022-02-22 06:39:00,,0820.5,5.01,0.00,22.1,21.2,00.0,31.2,23.6,04.6,0000.0,0008.41,0004.18,0003.50
2022-02-22 06:40:00,,0820.5,4.99,0.00,22.2,22.1,00.0,31.3,23.9,04.6,0000.0,0008.32,0004.16,0003.49
2022-02-22 06:41:00,,0820.4,5.01,0.00,22.4,22.9,00.0,31.3,24.2,04.6,0000.0,0008.42,0004.15,0003.49
2022-02-22 06:42:00,,0820.3,4.99,0.00,22.4,22.8,00.0,31.3,24.3,04.5,0000.0,0008.38,0004.12,0003.48
2022-02-22 06:43:00,,0820.3,5.01,0.00,22.4,22.2,00.0,31.3,24.2,04.5,0000.0,0008.39,0004.12,0003.47
2022-02-22 06:44:00,,0820.3,4.99,0.00,22.3,21.7,00.0,31.3,24.0,04.6,0000.0,0008.94,0004.12,0003.47
2022-02-22 06:45:00,,0820.3,5.00,0.00,22.2,21.3,00.0,31.3,23.8,04.6,0000.0,0009.49,0004.09,0003.47
2022-02-22 06:46:00,,0820.3,5.01,0.00,22.2,21.0,00.0,31.2,23.7,04.6,0000.0,0009.80,0004.08,0003.48
2022-02-22 06:47:00,,0820.3,5.01,0.00,22.1,21.3,00.0,31.2,23.7,04.6,0000.0,0009.74,0004.06,0003.49
2022-02-22 06:48:00,,0820.3,4.98,0.00,22.2,22.2,00.0,31.3,23.9,04.6,0000.0,0010.07,0004.07,0003.49
2022-02-22 06:49:00,,0820.3,5.02,0.00,22.4,22.9,00.0,31.3,24.2,04.6,0000.0,0010.48,0004.10,0003.49
2022-02-22 06:50:00,,0820.3,4.99,0.00,22.4,22.8,00.0,31.3,24.3,04.5,0000.0,0009.76,0004.10,0003.49
2022-02-22 06:51:00,,0820.3,5.00,0.00,22.4,22.2,00.0,31.3,24.1,04.5,0000.0,0009.86,0004.10,0003.48
2022-02-22 06:52:00,,0820.3,4.99,0.00,22.3,21.7,00.0,31.3,24.0,04.6,0000.0,0009.80,0004.09,0003.48
2022-02-22 06:53:00,,0820.3,5.00,0.00,22.2,21.3,00.0,31.3,23.8,04.6,0000.0,0009.84,0004.10,0003.49
2022-02-22 06:54:00,,0820.3,4.99,0.00,22.1,20.9,00.0,31.2,23.6,04.6,0000.0,0010.05,0004.09,0003.48
2022-02-22 06:55:00,,0820.3,5.00,0.00,22.1,21.1,00.0,31.2,23.6,04.6,0000.0,0009.97,0004.08,0003.48
2022-02-22 06:56:00,,0820.3,5.01,0.00,22.2,22.0,00.0,31.2,23.9,04.6,0000.0,0009.29,0004.07,0003.49
2022-02-22 06:57:00,,0820.5,5.00,0.00,22.3,22.8,00.0,31.3,24.2,04.6,0000.0,0008.78,0004.07,0003.48
2022-02-22 06:58:00,,0820.5,5.00,0.00,22.5,23.2,00.0,31.3,24.3,04.5,0000.0,0008.76,0004.06,0003.47
2022-02-22 06:59:00,,0820.6,5.02,0.00,22.5,22.7,00.0,31.3,24.3,04.6,0000.0,0008.60,0004.06,0003.46
